Private Wetterstation Wechselburg
Wetterdaten: Mittwoch, 09.12.2020
Datum Zeit Temp. +2m Bodentemp. Temp.+5cm Temp. Wind Windchill X Diff Temp. Feuchte +2m Feuchte +5cm Luftdruck Regen Wind Richtung Richtung Sonnenschein Taupunkt Windchill Windben
09.12.2020 00:00 2,7 C 5,5 C 2,3 C 2,7 C 2,6 C 0,0 C 87 % 92 % 1009,0 hPa 0,0 l/m 1,8 km/h (1 Bft) N-NO 22 0 min 0,8 C 2,6 C 2,4 km/h (1 Bft)
09.12.2020 00:05 2,6 C 5,5 C 2,3 C 2,7 C 2,7 C 0,1 C 87 % 92 % 1009,0 hPa 0,0 l/m 1,0 km/h (0 Bft) N-NO 22 0 min 0,7 C 2,7 C 0,0 km/h (0 Bft)
09.12.2020 00:10 2,6 C 5,5 C 2,3 C 2,8 C 2,8 C 0,2 C 87 % 92 % 1009,2 hPa 0,0 l/m 0,3 km/h (0 Bft) N-NO 22 0 min 0,7 C 2,8 C 0,0 km/h (0 Bft)
09.12.2020 00:15 2,5 C 5,5 C 2,3 C 2,8 C 2,8 C 0,3 C 88 % 92 % 1009,2 hPa 0,0 l/m 0,2 km/h (0 Bft) N-NO 22 0 min 0,7 C 2,8 C 1,6 km/h (1 Bft)
09.12.2020 00:20 2,5 C 5,5 C 2,4 C 2,9 C 2,9 C 0,4 C 88 % 92 % 1009,2 hPa 0,0 l/m 0,2 km/h (0 Bft) N-NO 22 0 min 0,7 C 2,9 C 1,6 km/h (1 Bft)
09.12.2020 00:25 2,5 C 5,5 C 2,5 C 3,0 C 3,0 C 0,5 C 88 % 92 % 1009,2 hPa 0,0 l/m 0,2 km/h (0 Bft) N-NO 22 0 min 0,7 C 3,0 C 0,0 km/h (0 Bft)
09.12.2020 00:30 2,6 C 5,5 C 2,6 C 3,1 C 3,1 C 0,5 C 88 % 92 % 1008,6 hPa 0,0 l/m 0,0 km/h (0 Bft) N-NO 22 0 min 0,8 C 3,1 C 0,0 km/h (0 Bft)
09.12.2020 00:35 2,7 C 5,6 C 2,6 C 3,1 C 3,1 C 0,4 C 88 % 92 % 1008,6 hPa 0,0 l/m 0,0 km/h (0 Bft) N-NO 22 0 min 0,9 C 3,1 C 0,0 km/h (0 Bft)
09.12.2020 00:40 2,5 C 5,6 C 2,6 C 3,1 C 3,1 C 0,6 C 88 % 92 % 1008,6 hPa 0,0 l/m 0,0 km/h (0 Bft) N-NO 22 0 min 0,7 C 3,1 C 0,0 km/h (0 Bft)
09.12.2020 00:45 2,5 C 5,6 C 2,6 C 3,1 C 3,1 C 0,6 C 88 % 92 % 1008,6 hPa 0,0 l/m 0,0 km/h (0 Bft) N-NO 22 0 min 0,7 C 3,1 C 0,0 km/h (0 Bft)
09.12.2020 00:50 2,5 C 5,6 C 2,7 C 3,1 C 3,1 C 0,6 C 88 % 92 % 1008,6 hPa 0,0 l/m 0,0 km/h (0 Bft) N-NO 22 0 min 0,7 C 3,1 C 0,0 km/h (0 Bft)
09.12.2020 00:55 2,5 C 5,6 C 2,6 C 3,1 C 3,1 C 0,6 C 88 % 92 % 1008,6 hPa 0,0 l/m 0,0 km/h (0 Bft) N-NO 22 0 min 0,7 C 3,1 C 0,0 km/h (0 Bft)
09.12.2020 01:00 2,5 C 5,6 C 2,7 C 3,1 C 3,1 C 0,6 C 88 % 92 % 1008,6 hPa 0,7 l/m 0,0 km/h (0 Bft) N-NO 22 0 min 0,7 C 3,1 C 0,0 km/h (0 Bft)
09.12.2020 01:05 2,5 C 5,6 C 2,7 C 3,1 C 3,1 C 0,6 C 88 % 92 % 1008,6 hPa 0,0 l/m 0,0 km/h (0 Bft) N-NO 22 0 min 0,7 C 3,1 C 0,0 km/h (0 Bft)
09.12.2020 01:10 2,5 C 5,6 C 2,7 C 3,1 C 3,1 C 0,6 C 88 % 92 % 1008,7 hPa 0,0 l/m 0,0 km/h (0 Bft) N-NO 22 0 min 0,7 C 3,1 C 0,0 km/h (0 Bft)
09.12.2020 01:15 2,5 C 5,6 C 2,7 C 3,1 C 3,1 C 0,6 C 88 % 92 % 1008,7 hPa 0,0 l/m 0,6 km/h (0 Bft) N-NO 22 0 min 0,7 C 3,1 C 0,0 km/h (0 Bft)
09.12.2020 01:20 2,5 C 5,6 C 2,8 C 3,2 C 3,2 C 0,7 C 88 % 92 % 1008,7 hPa 0,0 l/m 0,8 km/h (0 Bft) N-NO 22 0 min 0,7 C 3,2 C 1,9 km/h (1 Bft)
09.12.2020 01:25 2,5 C 5,6 C 2,8 C 3,3 C 3,3 C 0,8 C 88 % 92 % 1008,7 hPa 0,0 l/m 1,6 km/h (1 Bft) N-NO 22 0 min 0,7 C 3,3 C 3,9 km/h (1 Bft)
09.12.2020 01:30 2,6 C 5,6 C 2,9 C 3,3 C 3,3 C 0,7 C 88 % 92 % 1009,1 hPa 0,0 l/m 2,4 km/h (1 Bft) O-NO 67 0 min 0,8 C 3,3 C 2,9 km/h (1 Bft)
09.12.2020 01:35 2,7 C 5,6 C 2,9 C 3,4 C 3,4 C 0,7 C 88 % 92 % 1009,1 hPa 0,0 l/m 2,6 km/h (1 Bft) NO 45 0 min 0,9 C 3,4 C 2,1 km/h (1 Bft)
09.12.2020 01:40 2,7 C 5,6 C 3,0 C 3,4 C 3,4 C 0,7 C 88 % 92 % 1009,1 hPa 0,0 l/m 2,3 km/h (1 Bft) O-NO 67 0 min 0,9 C 3,4 C 2,1 km/h (1 Bft)
09.12.2020 01:45 2,7 C 5,6 C 3,0 C 3,5 C 3,5 C 0,8 C 88 % 92 % 1009,1 hPa 0,0 l/m 2,1 km/h (1 Bft) NO 45 0 min 0,9 C 3,5 C 5,3 km/h (1 Bft)
09.12.2020 01:50 2,7 C 5,6 C 3,0 C 3,5 C 3,5 C 0,8 C 88 % 92 % 1008,9 hPa 0,0 l/m 2,1 km/h (1 Bft) NO 45 0 min 0,9 C 3,5 C 2,3 km/h (1 Bft)
09.12.2020 01:55 2,7 C 5,6 C 3,0 C 3,5 C 3,5 C 0,8 C 88 % 92 % 1008,9 hPa 0,0 l/m 1,8 km/h (1 Bft) NO 45 0 min 0,9 C 3,5 C 1,8 km/h (1 Bft)
09.12.2020 02:00 2,7 C 5,6 C 3,0 C 3,5 C 3,5 C 0,8 C 88 % 92 % 1008,9 hPa 0,0 l/m 1,8 km/h (1 Bft) NO 45 0 min 0,9 C 3,5 C 2,6 km/h (1 Bft)
09.12.2020 02:05 2,7 C 5,6 C 3,0 C 3,5 C 3,5 C 0,8 C 88 % 92 % 1008,9 hPa 0,0 l/m 2,1 km/h (1 Bft) NO 45 0 min 0,9 C 3,5 C 2,4 km/h (1 Bft)
09.12.2020 02:10 2,7 C 5,6 C 3,0 C 3,5 C 3,5 C 0,8 C 88 % 92 % 1008,6 hPa 0,0 l/m 1,3 km/h (1 Bft) NO 45 0 min 0,9 C 3,5 C 0,0 km/h (0 Bft)
09.12.2020 02:15 2,7 C 5,6 C 3,0 C 3,5 C 3,5 C 0,8 C 88 % 92 % 1008,6 hPa 0,0 l/m 0,3 km/h (0 Bft) O-NO 67 0 min 0,9 C 3,5 C 0,0 km/h (0 Bft)
09.12.2020 02:20 2,6 C 5,6 C 3,0 C 3,5 C 3,5 C 0,9 C 88 % 92 % 1008,6 hPa 0,0 l/m 0,3 km/h (0 Bft) NO 45 0 min 0,8 C 3,5 C 0,0 km/h (0 Bft)
09.12.2020 02:25 2,6 C 5,6 C 3,0 C 3,4 C 3,4 C 0,8 C 88 % 92 % 1008,6 hPa 0,0 l/m 0,2 km/h (0 Bft) NO 45 0 min 0,8 C 3,4 C 0,0 km/h (0 Bft)
09.12.2020 02:30 2,5 C 5,6 C 3,0 C 3,4 C 3,4 C 0,9 C 88 % 92 % 1008,6 hPa 0,0 l/m 0,0 km/h (0 Bft) NO 45 0 min 0,7 C 3,4 C 0,0 km/h (0 Bft)
09.12.2020 02:35 2,5 C 5,6 C 2,9 C 3,4 C 3,4 C 0,9 C 88 % 92 % 1008,6 hPa 0,0 l/m 0,0 km/h (0 Bft) N-NO 22 0 min 0,7 C 3,4 C 0,0 km/h (0 Bft)
09.12.2020 02:40 2,5 C 5,6 C 2,9 C 3,4 C 3,4 C 0,9 C 88 % 92 % 1008,6 hPa 0,0 l/m 0,0 km/h (0 Bft) N-NO 22 0 min 0,7 C 3,4 C 0,0 km/h (0 Bft)
09.12.2020 02:45 2,5 C 5,6 C 3,0 C 3,4 C 3,4 C 0,9 C 88 % 92 % 1008,6 hPa 0,0 l/m 1,0 km/h (0 Bft) NO 45 0 min 0,7 C 3,4 C 2,9 km/h (1 Bft)
09.12.2020 02:50 2,4 C 5,6 C 3,0 C 3,4 C 3,4 C 1,0 C 88 % 92 % 1008,6 hPa 0,0 l/m 2,1 km/h (1 Bft) NO 45 0 min 0,6 C 3,4 C 2,4 km/h (1 Bft)
09.12.2020 02:55 2,4 C 5,6 C 3,0 C 3,4 C 3,4 C 1,0 C 88 % 92 % 1008,6 hPa 0,0 l/m 2,7 km/h (1 Bft) NO 45 0 min 0,6 C 3,4 C 1,9 km/h (1 Bft)
09.12.2020 03:00 2,4 C 5,6 C 3,0 C 3,4 C 3,4 C 1,0 C 88 % 92 % 1008,6 hPa 0,0 l/m 2,3 km/h (1 Bft) NO 45 0 min 0,6 C 3,4 C 0,0 km/h (0 Bft)
09.12.2020 03:05 2,4 C 5,6 C 3,0 C 3,4 C 3,4 C 1,0 C 88 % 92 % 1008,6 hPa 0,0 l/m 1,3 km/h (1 Bft) O-NO 67 0 min 0,6 C 3,4 C 0,0 km/h (0 Bft)
09.12.2020 03:10 2,4 C 5,6 C 3,0 C 3,4 C 3,4 C 1,0 C 88 % 92 % 1008,6 hPa 0,0 l/m 0,5 km/h (0 Bft) NO 45 0 min 0,6 C 3,4 C 0,0 km/h (0 Bft)
09.12.2020 03:15 2,4 C 5,6 C 3,0 C 3,4 C 3,4 C 1,0 C 88 % 92 % 1008,6 hPa 0,0 l/m 0,0 km/h (0 Bft) N-NO 22 0 min 0,6 C 3,4 C 0,0 km/h (0 Bft)
09.12.2020 03:20 2,5 C 5,6 C 3,0 C 3,4 C 3,4 C 0,9 C 88 % 92 % 1008,6 hPa 0,0 l/m 0,0 km/h (0 Bft) O-NO 67 0 min 0,7 C 3,4 C 0,0 km/h (0 Bft)
09.12.2020 03:25 2,4 C 5,7 C 3,0 C 3,4 C 3,4 C 1,0 C 88 % 92 % 1008,6 hPa 0,0 l/m 0,0 km/h (0 Bft) O-NO 67 0 min 0,6 C 3,4 C 0,0 km/h (0 Bft)
09.12.2020 03:30 2,5 C 5,7 C 3,0 C 3,4 C 3,4 C 0,9 C 88 % 92 % 1009,7 hPa 0,0 l/m 0,0 km/h (0 Bft) N-NO 22 0 min 0,7 C 3,4 C 0,0 km/h (0 Bft)
09.12.2020 03:35 2,4 C 5,7 C 3,0 C 3,4 C 3,4 C 1,0 C 88 % 92 % 1009,7 hPa 0,0 l/m 0,0 km/h (0 Bft) O-NO 67 0 min 0,6 C 3,4 C 0,0 km/h (0 Bft)
09.12.2020 03:40 2,4 C 5,7 C 3,0 C 3,4 C 3,4 C 1,0 C 88 % 92 % 1009,7 hPa 0,0 l/m 0,0 km/h (0 Bft) O-NO 67 0 min 0,6 C 3,4 C 0,0 km/h (0 Bft)
09.12.2020 03:45 2,4 C 5,7 C 3,0 C 3,4 C 3,4 C 1,0 C 88 % 92 % 1009,7 hPa 0,0 l/m 0,0 km/h (0 Bft) O-NO 67 0 min 0,6 C 3,4 C 0,0 km/h (0 Bft)
09.12.2020 03:50 2,4 C 5,7 C 3,0 C 3,4 C 3,4 C 1,0 C 88 % 92 % 1009,1 hPa 0,0 l/m 0,0 km/h (0 Bft) O-NO 67 0 min 0,6 C 3,4 C 0,0 km/h (0 Bft)
09.12.2020 03:55 2,4 C 5,7 C 3,0 C 3,4 C 3,4 C 1,0 C 88 % 92 % 1009,1 hPa 0,0 l/m 0,0 km/h (0 Bft) NO 45 0 min 0,6 C 3,4 C 0,0 km/h (0 Bft)
09.12.2020 04:00 2,4 C 5,7 C 3,0 C 3,5 C 3,5 C 1,1 C 88 % 92 % 1009,1 hPa 0,0 l/m 0,0 km/h (0 Bft) NO 45 0 min 0,6 C 3,5 C 0,0 km/h (0 Bft)
09.12.2020 04:05 2,4 C 5,7 C 3,0 C 3,5 C 3,5 C 1,1 C 88 % 92 % 1009,1 hPa 0,0 l/m 0,0 km/h (0 Bft) NO 45 0 min 0,6 C 3,5 C 0,0 km/h (0 Bft)
09.12.2020 04:10 2,4 C 5,7 C 3,0 C 3,6 C 3,6 C 1,2 C 88 % 92 % 1009,1 hPa 0,0 l/m 0,0 km/h (0 Bft) N-NO 22 0 min 0,6 C 3,6 C 0,0 km/h (0 Bft)
09.12.2020 04:15 2,4 C 5,7 C 3,0 C 3,6 C 3,6 C 1,2 C 88 % 92 % 1009,1 hPa 0,7 l/m 0,0 km/h (0 Bft) NO 45 0 min 0,6 C 3,6 C 0,0 km/h (0 Bft)
09.12.2020 04:20 2,4 C 5,7 C 3,1 C 3,6 C 3,6 C 1,2 C 88 % 92 % 1009,1 hPa 0,0 l/m 0,0 km/h (0 Bft) N-NO 22 0 min 0,6 C 3,6 C 0,0 km/h (0 Bft)
09.12.2020 04:25 2,4 C 5,7 C 3,1 C 3,6 C 3,6 C 1,2 C 89 % 92 % 1009,1 hPa 0,0 l/m 0,0 km/h (0 Bft) N-NO 22 0 min 0,8 C 3,6 C 0,0 km/h (0 Bft)
09.12.2020 04:30 2,4 C 5,7 C 3,1 C 3,6 C 3,6 C 1,2 C 89 % 92 % 1009,1 hPa 0,0 l/m 0,0 km/h (0 Bft) N-NO 22 0 min 0,8 C 3,6 C 0,0 km/h (0 Bft)
09.12.2020 04:35 2,4 C 5,7 C 3,2 C 3,7 C 3,7 C 1,3 C 89 % 92 % 1009,1 hPa 0,0 l/m 0,0 km/h (0 Bft) NO 45 0 min 0,8 C 3,7 C 0,0 km/h (0 Bft)
09.12.2020 04:40 2,5 C 5,7 C 3,2 C 3,7 C 3,7 C 1,2 C 88 % 92 % 1009,1 hPa 0,0 l/m 0,0 km/h (0 Bft) O-NO 67 0 min 0,7 C 3,7 C 0,0 km/h (0 Bft)
09.12.2020 04:45 2,4 C 5,7 C 3,2 C 3,6 C 3,6 C 1,2 C 89 % 92 % 1009,1 hPa 0,0 l/m 0,0 km/h (0 Bft) O-NO 67 0 min 0,8 C 3,6 C 0,0 km/h (0 Bft)
09.12.2020 04:50 2,4 C 5,7 C 3,2 C 3,6 C 3,6 C 1,2 C 89 % 92 % 1008,9 hPa 0,0 l/m 0,0 km/h (0 Bft) NO 45 0 min 0,8 C 3,6 C 0,0 km/h (0 Bft)
09.12.2020 04:55 2,4 C 5,7 C 3,2 C 3,6 C 3,6 C 1,2 C 89 % 92 % 1008,9 hPa 0,0 l/m 0,2 km/h (0 Bft) NO 45 0 min 0,8 C 3,6 C 0,0 km/h (0 Bft)
09.12.2020 05:00 2,5 C 5,7 C 3,2 C 3,7 C 3,7 C 1,2 C 89 % 92 % 1008,9 hPa 0,0 l/m 0,2 km/h (0 Bft) NO 45 0 min 0,9 C 3,7 C 0,0 km/h (0 Bft)
09.12.2020 05:05 2,5 C 5,7 C 3,2 C 3,7 C 3,7 C 1,2 C 89 % 92 % 1008,9 hPa 0,0 l/m 0,0 km/h (0 Bft) NO 45 0 min 0,9 C 3,7 C 0,0 km/h (0 Bft)
09.12.2020 05:10 2,5 C 5,7 C 3,2 C 3,7 C 3,7 C 1,2 C 89 % 92 % 1008,8 hPa 0,0 l/m 0,0 km/h (0 Bft) NO 45 0 min 0,9 C 3,7 C 0,0 km/h (0 Bft)
09.12.2020 05:15 2,4 C 5,7 C 3,2 C 3,7 C 3,7 C 1,3 C 89 % 92 % 1008,8 hPa 0,0 l/m 0,0 km/h (0 Bft) NO 45 0 min 0,8 C 3,7 C 0,0 km/h (0 Bft)
09.12.2020 05:20 2,4 C 5,7 C 3,2 C 3,7 C 3,7 C 1,3 C 89 % 92 % 1008,8 hPa 0,0 l/m 0,0 km/h (0 Bft) NO 45 0 min 0,8 C 3,7 C 0,0 km/h (0 Bft)
09.12.2020 05:25 2,4 C 5,7 C 3,1 C 3,6 C 3,6 C 1,2 C 89 % 92 % 1008,8 hPa 0,0 l/m 0,0 km/h (0 Bft) NO 45 0 min 0,8 C 3,6 C 0,0 km/h (0 Bft)
09.12.2020 05:30 2,4 C 5,7 C 3,1 C 3,6 C 3,6 C 1,2 C 89 % 92 % 1008,9 hPa 0,0 l/m 0,0 km/h (0 Bft) NO 45 0 min 0,8 C 3,6 C 0,0 km/h (0 Bft)
09.12.2020 05:35 2,4 C 5,7 C 3,2 C 3,6 C 3,6 C 1,2 C 89 % 92 % 1008,9 hPa 0,0 l/m 0,0 km/h (0 Bft) NO 45 0 min 0,8 C 3,6 C 0,0 km/h (0 Bft)
09.12.2020 05:40 2,4 C 5,7 C 3,2 C 3,6 C 3,6 C 1,2 C 89 % 92 % 1008,9 hPa 0,0 l/m 0,0 km/h (0 Bft) NO 45 0 min 0,8 C 3,6 C 0,0 km/h (0 Bft)
09.12.2020 05:45 2,4 C 5,7 C 3,1 C 3,6 C 3,6 C 1,2 C 89 % 92 % 1008,9 hPa 0,0 l/m 0,0 km/h (0 Bft) NO 45 0 min 0,8 C 3,6 C 0,0 km/h (0 Bft)
09.12.2020 05:50 2,4 C 5,7 C 3,1 C 3,6 C 3,6 C 1,2 C 89 % 92 % 1008,7 hPa 0,0 l/m 0,0 km/h (0 Bft) NO 45 0 min 0,8 C 3,6 C 0,0 km/h (0 Bft)
09.12.2020 05:55 2,4 C 5,7 C 3,2 C 3,7 C 3,7 C 1,3 C 89 % 92 % 1008,7 hPa 0,0 l/m 0,0 km/h (0 Bft) NO 45 0 min 0,8 C 3,7 C 0,0 km/h (0 Bft)
09.12.2020 06:00 2,4 C 5,7 C 3,2 C 3,7 C 3,7 C 1,3 C 89 % 92 % 1008,7 hPa 0,0 l/m 0,2 km/h (0 Bft) NO 45 0 min 0,8 C 3,7 C 1,9 km/h (1 Bft)
09.12.2020 06:05 2,5 C 5,7 C 3,3 C 3,8 C 3,8 C 1,3 C 89 % 92 % 1008,7 hPa 0,0 l/m 1,0 km/h (0 Bft) NO 45 0 min 0,9 C 3,8 C 2,7 km/h (1 Bft)
09.12.2020 06:10 2,5 C 5,8 C 3,3 C 3,8 C 3,8 C 1,3 C 89 % 92 % 1009,1 hPa 0,0 l/m 1,9 km/h (1 Bft) NO 45 0 min 0,9 C 3,8 C 3,4 km/h (1 Bft)
09.12.2020 06:15 2,5 C 5,8 C 3,3 C 3,6 C 3,6 C 1,1 C 89 % 92 % 1009,1 hPa 0,0 l/m 3,1 km/h (1 Bft) O-NO 67 0 min 0,9 C 3,6 C 2,7 km/h (1 Bft)
09.12.2020 06:20 2,6 C 5,8 C 3,3 C 3,6 C 3,6 C 1,0 C 89 % 92 % 1009,1 hPa 0,0 l/m 3,2 km/h (1 Bft) NO 45 0 min 1,0 C 3,6 C 3,9 km/h (1 Bft)
09.12.2020 06:25 2,7 C 5,8 C 3,3 C 3,7 C 3,7 C 1,0 C 89 % 92 % 1009,1 hPa 0,0 l/m 3,2 km/h (1 Bft) O-NO 67 0 min 1,1 C 3,7 C 2,4 km/h (1 Bft)
09.12.2020 06:30 2,7 C 5,8 C 3,4 C 3,8 C 3,8 C 1,1 C 89 % 92 % 1009,2 hPa 0,0 l/m 2,9 km/h (1 Bft) O-NO 67 0 min 1,1 C 3,8 C 2,7 km/h (1 Bft)
09.12.2020 06:35 2,7 C 5,8 C 3,4 C 3,9 C 3,9 C 1,2 C 89 % 92 % 1009,2 hPa 0,0 l/m 1,9 km/h (1 Bft) N-NO 22 0 min 1,1 C 3,9 C 0,0 km/h (0 Bft)
09.12.2020 06:40 2,7 C 5,8 C 3,3 C 3,9 C 3,9 C 1,2 C 89 % 92 % 1009,2 hPa 0,0 l/m 1,0 km/h (0 Bft) N-NO 22 0 min 1,1 C 3,9 C 0,0 km/h (0 Bft)
09.12.2020 06:45 2,7 C 5,8 C 3,3 C 3,9 C 3,9 C 1,2 C 89 % 92 % 1009,2 hPa 0,0 l/m 0,0 km/h (0 Bft) N-NO 22 0 min 1,1 C 3,9 C 0,0 km/h (0 Bft)
09.12.2020 06:50 2,6 C 5,8 C 3,3 C 3,9 C 3,9 C 1,3 C 89 % 92 % 1010,0 hPa 0,0 l/m 0,0 km/h (0 Bft) N-NO 22 0 min 1,0 C 3,9 C 0,0 km/h (0 Bft)
09.12.2020 06:55 2,7 C 5,8 C 3,3 C 3,9 C 3,9 C 1,2 C 89 % 92 % 1010,0 hPa 0,0 l/m 0,0 km/h (0 Bft) N-NO 22 0 min 1,1 C 3,9 C 0,0 km/h (0 Bft)
09.12.2020 07:00 2,7 C 5,8 C 3,3 C 3,9 C 3,9 C 1,2 C 89 % 92 % 1010,0 hPa 0,0 l/m 0,0 km/h (0 Bft) N-NO 22 0 min 1,1 C 3,9 C 0,0 km/h (0 Bft)
09.12.2020 07:05 2,7 C 5,8 C 3,3 C 3,8 C 3,8 C 1,1 C 89 % 92 % 1010,0 hPa 0,0 l/m 0,0 km/h (0 Bft) N-NO 22 0 min 1,1 C 3,8 C 0,0 km/h (0 Bft)
09.12.2020 07:10 2,7 C 5,8 C 3,3 C 3,8 C 3,8 C 1,1 C 89 % 92 % 1009,6 hPa 0,0 l/m 0,0 km/h (0 Bft) N-NO 22 0 min 1,1 C 3,8 C 0,0 km/h (0 Bft)
09.12.2020 07:15 2,6 C 5,8 C 3,3 C 3,8 C 3,8 C 1,2 C 89 % 92 % 1009,6 hPa 0,0 l/m 0,0 km/h (0 Bft) N-NO 22 0 min 1,0 C 3,8 C 0,0 km/h (0 Bft)
09.12.2020 07:20 2,6 C 5,8 C 3,3 C 3,8 C 3,8 C 1,2 C 89 % 92 % 1009,6 hPa 0,0 l/m 0,0 km/h (0 Bft) N-NO 22 0 min 1,0 C 3,8 C 0,0 km/h (0 Bft)
09.12.2020 07:25 2,5 C 5,8 C 3,3 C 3,8 C 3,8 C 1,3 C 89 % 92 % 1009,6 hPa 0,0 l/m 0,0 km/h (0 Bft) N-NO 22 0 min 0,9 C 3,8 C 0,0 km/h (0 Bft)
09.12.2020 07:30 2,5 C 5,8 C 3,3 C 3,8 C 3,8 C 1,3 C 89 % 92 % 1010,0 hPa 0,0 l/m 0,0 km/h (0 Bft) N-NO 22 0 min 0,9 C 3,8 C 0,0 km/h (0 Bft)
09.12.2020 07:35 2,5 C 5,8 C 3,3 C 3,8 C 3,8 C 1,3 C 89 % 92 % 1010,0 hPa 0,0 l/m 0,0 km/h (0 Bft) N-NO 22 0 min 0,9 C 3,8 C 0,0 km/h (0 Bft)
09.12.2020 07:40 2,5 C 5,8 C 3,3 C 3,8 C 3,8 C 1,3 C 89 % 92 % 1010,0 hPa 0,0 l/m 0,0 km/h (0 Bft) N-NO 22 0 min 0,9 C 3,8 C 0,0 km/h (0 Bft)
09.12.2020 07:45 2,4 C 5,8 C 3,3 C 3,7 C 3,7 C 1,3 C 89 % 92 % 1010,0 hPa 0,0 l/m 0,0 km/h (0 Bft) N-NO 22 0 min 0,8 C 3,7 C 0,0 km/h (0 Bft)
09.12.2020 07:50 2,4 C 5,8 C 3,2 C 3,7 C 3,7 C 1,3 C 89 % 92 % 1009,9 hPa 0,0 l/m 0,0 km/h (0 Bft) N-NO 22 0 min 0,8 C 3,7 C 0,0 km/h (0 Bft)
09.12.2020 07:55 2,4 C 5,8 C 3,1 C 3,6 C 3,6 C 1,2 C 89 % 92 % 1009,9 hPa 0,0 l/m 0,0 km/h (0 Bft) N-NO 22 0 min 0,8 C 3,6 C 0,0 km/h (0 Bft)
09.12.2020 08:00 2,4 C 5,8 C 3,1 C 3,6 C 3,6 C 1,2 C 89 % 92 % 1009,9 hPa 0,0 l/m 0,0 km/h (0 Bft) N-NO 22 0 min 0,8 C 3,6 C 0,0 km/h (0 Bft)
09.12.2020 08:05 2,4 C 5,8 C 3,1 C 3,6 C 3,6 C 1,2 C 89 % 92 % 1009,9 hPa 0,0 l/m 0,0 km/h (0 Bft) O-NO 67 0 min 0,8 C 3,6 C 0,0 km/h (0 Bft)
09.12.2020 08:10 2,4 C 5,8 C 3,1 C 3,6 C 3,6 C 1,2 C 89 % 92 % 1009,9 hPa 0,0 l/m 0,0 km/h (0 Bft) NO 45 0 min 0,8 C 3,6 C 0,0 km/h (0 Bft)
09.12.2020 08:15 2,4 C 5,8 C 3,1 C 3,6 C 3,6 C 1,2 C 89 % 92 % 1009,9 hPa 0,0 l/m 0,0 km/h (0 Bft) NO 45 5 min 0,8 C 3,6 C 0,0 km/h (0 Bft)
09.12.2020 08:20 2,4 C 5,8 C 3,1 C 3,6 C 3,6 C 1,2 C 89 % 92 % 1009,9 hPa 0,0 l/m 0,0 km/h (0 Bft) NO 45 5 min 0,8 C 3,6 C 0,0 km/h (0 Bft)
09.12.2020 08:25 2,3 C 5,8 C 3,1 C 3,5 C 3,5 C 1,2 C 89 % 92 % 1009,9 hPa 0,0 l/m 0,0 km/h (0 Bft) O 90 5 min 0,7 C 3,5 C 0,0 km/h (0 Bft)
09.12.2020 08:30 2,3 C 5,8 C 3,1 C 3,5 C 3,5 C 1,2 C 89 % 92 % 1010,4 hPa 0,0 l/m 0,0 km/h (0 Bft) O 90 5 min 0,7 C 3,5 C 0,0 km/h (0 Bft)
09.12.2020 08:35 2,3 C 5,8 C 3,1 C 3,6 C 3,6 C 1,3 C 89 % 92 % 1010,4 hPa 0,0 l/m 0,0 km/h (0 Bft) O 90 5 min 0,7 C 3,6 C 0,0 km/h (0 Bft)
09.12.2020 08:40 2,3 C 5,8 C 3,1 C 3,6 C 3,6 C 1,3 C 89 % 92 % 1010,4 hPa 0,0 l/m 0,0 km/h (0 Bft) O 90 5 min 0,7 C 3,6 C 0,0 km/h (0 Bft)
09.12.2020 08:45 2,3 C 5,8 C 3,1 C 3,6 C 3,6 C 1,3 C 89 % 92 % 1010,4 hPa 0,0 l/m 0,0 km/h (0 Bft) O 90 5 min 0,7 C 3,6 C 0,0 km/h (0 Bft)
09.12.2020 08:50 2,3 C 5,8 C 3,1 C 3,6 C 3,6 C 1,3 C 89 % 92 % 1010,7 hPa 0,0 l/m 0,0 km/h (0 Bft) O 90 5 min 0,7 C 3,6 C 0,0 km/h (0 Bft)
09.12.2020 08:55 2,3 C 5,8 C 3,2 C 3,7 C 3,7 C 1,4 C 89 % 92 % 1010,7 hPa 0,0 l/m 0,0 km/h (0 Bft) O 90 5 min 0,7 C 3,7 C 0,0 km/h (0 Bft)
09.12.2020 09:00 2,3 C 5,8 C 3,2 C 3,7 C 3,7 C 1,4 C 89 % 92 % 1010,7 hPa 0,0 l/m 0,0 km/h (0 Bft) O 90 5 min 0,7 C 3,7 C 0,0 km/h (0 Bft)
09.12.2020 09:05 2,3 C 5,8 C 3,3 C 3,7 C 3,7 C 1,4 C 89 % 92 % 1010,7 hPa 0,0 l/m 0,0 km/h (0 Bft) O 90 5 min 0,7 C 3,7 C 0,0 km/h (0 Bft)
09.12.2020 09:10 2,3 C 5,8 C 3,3 C 3,8 C 3,8 C 1,5 C 89 % 92 % 1010,4 hPa 0,0 l/m 0,0 km/h (0 Bft) O 90 5 min 0,7 C 3,8 C 0,0 km/h (0 Bft)
09.12.2020 09:15 2,4 C 5,8 C 3,4 C 3,9 C 3,9 C 1,5 C 89 % 92 % 1010,4 hPa 0,0 l/m 0,0 km/h (0 Bft) O 90 0 min 0,8 C 3,9 C 0,0 km/h (0 Bft)
09.12.2020 09:20 2,5 C 5,8 C 3,5 C 4,0 C 4,0 C 1,5 C 89 % 92 % 1010,4 hPa 0,0 l/m 0,0 km/h (0 Bft) O 90 0 min 0,9 C 4,0 C 0,0 km/h (0 Bft)
09.12.2020 09:25 2,4 C 5,9 C 3,6 C 4,2 C 4,2 C 1,8 C 89 % 92 % 1010,4 hPa 0,0 l/m 0,0 km/h (0 Bft) O 90 0 min 0,8 C 4,2 C 0,0 km/h (0 Bft)
09.12.2020 09:30 2,4 C 5,9 C 3,6 C 4,1 C 4,1 C 1,7 C 89 % 92 % 1010,7 hPa 0,0 l/m 0,0 km/h (0 Bft) O 90 0 min 0,8 C 4,1 C 0,0 km/h (0 Bft)
09.12.2020 09:35 2,4 C 5,9 C 3,5 C 4,1 C 4,1 C 1,7 C 89 % 92 % 1010,7 hPa 0,0 l/m 0,2 km/h (0 Bft) O-NO 67 0 min 0,8 C 4,1 C 0,0 km/h (0 Bft)
09.12.2020 09:40 2,4 C 5,9 C 3,6 C 4,2 C 4,2 C 1,8 C 89 % 92 % 1010,7 hPa 0,0 l/m 0,2 km/h (0 Bft) O-NO 67 0 min 0,8 C 4,2 C 0,0 km/h (0 Bft)
09.12.2020 09:45 2,5 C 5,9 C 3,7 C 4,3 C 4,3 C 1,8 C 89 % 92 % 1010,7 hPa 0,0 l/m 0,0 km/h (0 Bft) O-NO 67 0 min 0,9 C 4,3 C 0,0 km/h (0 Bft)
09.12.2020 09:50 2,5 C 5,9 C 3,7 C 4,4 C 4,4 C 1,9 C 89 % 92 % 1010,9 hPa 0,0 l/m 0,0 km/h (0 Bft) N-NO 22 0 min 0,9 C 4,4 C 0,0 km/h (0 Bft)
09.12.2020 09:55 2,6 C 5,9 C 3,8 C 4,5 C 4,5 C 1,9 C 89 % 92 % 1010,9 hPa 0,0 l/m 0,0 km/h (0 Bft) N-NO 22 0 min 1,0 C 4,5 C 0,0 km/h (0 Bft)
09.12.2020 10:00 2,7 C 5,9 C 3,9 C 4,6 C 4,6 C 1,9 C 89 % 92 % 1010,9 hPa 0,0 l/m 0,0 km/h (0 Bft) N-NO 22 0 min 1,1 C 4,6 C 0,0 km/h (0 Bft)
09.12.2020 10:05 2,7 C 5,9 C 3,9 C 4,7 C 4,7 C 2,0 C 89 % 92 % 1010,9 hPa 0,0 l/m 0,0 km/h (0 Bft) N-NO 22 0 min 1,1 C 4,7 C 0,0 km/h (0 Bft)
09.12.2020 10:10 2,7 C 5,9 C 4,0 C 4,8 C 4,8 C 2,1 C 89 % 92 % 1011,0 hPa 0,0 l/m 0,0 km/h (0 Bft) N-NO 22 0 min 1,1 C 4,8 C 0,0 km/h (0 Bft)
09.12.2020 10:15 2,8 C 5,9 C 4,0 C 4,8 C 4,8 C 2,0 C 89 % 92 % 1011,0 hPa 0,0 l/m 0,0 km/h (0 Bft) N-NO 22 0 min 1,2 C 4,8 C 0,0 km/h (0 Bft)
09.12.2020 10:20 2,8 C 5,9 C 4,1 C 4,8 C 4,8 C 2,0 C 89 % 92 % 1011,0 hPa 0,0 l/m 0,0 km/h (0 Bft) N-NO 22 0 min 1,2 C 4,8 C 0,0 km/h (0 Bft)
09.12.2020 10:25 2,8 C 5,9 C 4,1 C 5,0 C 5,0 C 2,2 C 89 % 92 % 1011,0 hPa 0,0 l/m 0,0 km/h (0 Bft) N-NO 22 0 min 1,2 C 5,0 C 0,0 km/h (0 Bft)
09.12.2020 10:30 2,9 C 5,9 C 4,2 C 5,0 C 5,0 C 2,1 C 89 % 92 % 1011,1 hPa 0,0 l/m 0,0 km/h (0 Bft) N-NO 22 0 min 1,3 C 5,0 C 0,0 km/h (0 Bft)
09.12.2020 10:35 2,9 C 5,9 C 4,2 C 5,0 C 5,0 C 2,1 C 89 % 92 % 1011,1 hPa 0,0 l/m 0,0 km/h (0 Bft) N-NO 22 0 min 1,3 C 5,0 C 0,0 km/h (0 Bft)
09.12.2020 10:40 2,9 C 5,9 C 4,2 C 5,0 C 5,0 C 2,1 C 89 % 92 % 1011,1 hPa 0,0 l/m 0,0 km/h (0 Bft) N-NO 22 0 min 1,3 C 5,0 C 0,0 km/h (0 Bft)
09.12.2020 10:45 2,9 C 5,9 C 4,1 C 5,0 C 5,0 C 2,1 C 89 % 92 % 1011,1 hPa 0,0 l/m 0,0 km/h (0 Bft) N-NO 22 0 min 1,3 C 5,0 C 0,0 km/h (0 Bft)
09.12.2020 10:50 2,9 C 5,9 C 4,1 C 4,8 C 4,8 C 1,9 C 89 % 92 % 1011,2 hPa 0,0 l/m 0,0 km/h (0 Bft) N-NO 22 0 min 1,3 C 4,8 C 0,0 km/h (0 Bft)
09.12.2020 10:55 2,9 C 5,9 C 4,2 C 5,0 C 5,0 C 2,1 C 89 % 92 % 1011,2 hPa 0,0 l/m 0,0 km/h (0 Bft) N-NO 22 0 min 1,3 C 5,0 C 0,0 km/h (0 Bft)
09.12.2020 11:00 3,0 C 5,9 C 4,2 C 5,0 C 5,0 C 2,0 C 89 % 92 % 1011,2 hPa 0,0 l/m 0,0 km/h (0 Bft) N-NO 22 0 min 1,4 C 5,0 C 0,0 km/h (0 Bft)
09.12.2020 11:05 3,1 C 5,9 C 4,3 C 5,1 C 5,1 C 2,0 C 89 % 92 % 1011,2 hPa 0,0 l/m 0,0 km/h (0 Bft) N-NO 22 0 min 1,5 C 5,1 C 0,0 km/h (0 Bft)
09.12.2020 11:10 3,1 C 5,9 C 4,3 C 5,1 C 5,1 C 2,0 C 89 % 92 % 1011,2 hPa 0,0 l/m 0,0 km/h (0 Bft) N-NO 22 0 min 1,5 C 5,1 C 0,0 km/h (0 Bft)
09.12.2020 11:15 3,2 C 5,9 C 4,5 C 5,3 C 5,3 C 2,1 C 89 % 92 % 1011,2 hPa 0,0 l/m 0,0 km/h (0 Bft) N-NO 22 0 min 1,6 C 5,3 C 0,0 km/h (0 Bft)
09.12.2020 11:20 3,2 C 5,9 C 4,5 C 5,2 C 5,2 C 2,0 C 89 % 92 % 1011,2 hPa 0,0 l/m 0,2 km/h (0 Bft) N-NO 22 0 min 1,6 C 5,2 C 0,0 km/h (0 Bft)
09.12.2020 11:25 3,1 C 6,0 C 4,5 C 5,2 C 5,2 C 2,1 C 89 % 92 % 1011,2 hPa 0,0 l/m 0,3 km/h (0 Bft) N-NO 22 0 min 1,5 C 5,2 C 0,0 km/h (0 Bft)
09.12.2020 11:30 3,2 C 6,0 C 4,6 C 5,2 C 5,2 C 2,0 C 89 % 92 % 1011,2 hPa 0,0 l/m 0,2 km/h (0 Bft) N-NO 22 0 min 1,6 C 5,2 C 0,0 km/h (0 Bft)
09.12.2020 11:35 3,3 C 6,0 C 4,7 C 5,4 C 5,4 C 2,1 C 89 % 92 % 1011,2 hPa 0,0 l/m 0,0 km/h (0 Bft) N-NO 22 0 min 1,7 C 5,4 C 0,0 km/h (0 Bft)
09.12.2020 11:40 3,3 C 6,0 C 4,7 C 5,5 C 5,5 C 2,2 C 89 % 92 % 1011,2 hPa 0,0 l/m 0,0 km/h (0 Bft) N-NO 22 0 min 1,7 C 5,5 C 0,0 km/h (0 Bft)
09.12.2020 11:45 3,5 C 6,0 C 4,8 C 5,7 C 5,7 C 2,2 C 89 % 92 % 1011,2 hPa 0,0 l/m 0,0 km/h (0 Bft) N-NO 22 0 min 1,9 C 5,7 C 0,0 km/h (0 Bft)
09.12.2020 11:50 3,5 C 6,0 C 4,9 C 5,8 C 5,8 C 2,3 C 89 % 92 % 1011,4 hPa 0,0 l/m 0,0 km/h (0 Bft) N-NO 22 0 min 1,9 C 5,8 C 0,0 km/h (0 Bft)
09.12.2020 11:55 3,6 C 6,0 C 4,8 C 5,7 C 5,7 C 2,1 C 89 % 92 % 1011,4 hPa 0,0 l/m 0,0 km/h (0 Bft) N-NO 22 0 min 2,0 C 5,7 C 0,0 km/h (0 Bft)
09.12.2020 12:00 3,6 C 6,0 C 4,9 C 5,7 C 5,7 C 2,1 C 89 % 92 % 1011,4 hPa 0,0 l/m 0,0 km/h (0 Bft) N-NO 22 0 min 2,0 C 5,7 C 0,0 km/h (0 Bft)
09.12.2020 12:05 3,7 C 6,0 C 5,0 C 5,8 C 5,8 C 2,1 C 89 % 92 % 1011,4 hPa 0,0 l/m 0,0 km/h (0 Bft) N-NO 22 0 min 2,1 C 5,8 C 0,0 km/h (0 Bft)
09.12.2020 12:10 3,7 C 6,0 C 4,9 C 5,8 C 5,8 C 2,1 C 89 % 92 % 1011,4 hPa 0,0 l/m 0,0 km/h (0 Bft) N-NO 22 0 min 2,1 C 5,8 C 0,0 km/h (0 Bft)
09.12.2020 12:15 3,8 C 6,0 C 5,0 C 5,7 C 5,7 C 1,9 C 89 % 92 % 1011,4 hPa 0,0 l/m 0,0 km/h (0 Bft) N-NO 22 0 min 2,2 C 5,7 C 0,0 km/h (0 Bft)
09.12.2020 12:20 3,9 C 6,0 C 4,9 C 5,7 C 5,7 C 1,8 C 89 % 92 % 1011,4 hPa 0,0 l/m 0,0 km/h (0 Bft) N-NO 22 0 min 2,3 C 5,7 C 0,0 km/h (0 Bft)
09.12.2020 12:25 3,7 C 6,0 C 4,9 C 5,7 C 5,7 C 2,0 C 89 % 92 % 1011,4 hPa 0,0 l/m 0,0 km/h (0 Bft) N-NO 22 0 min 2,1 C 5,7 C 0,0 km/h (0 Bft)
09.12.2020 12:30 3,7 C 6,0 C 4,9 C 5,7 C 5,7 C 2,0 C 89 % 92 % 1010,9 hPa 0,0 l/m 0,0 km/h (0 Bft) N-NO 22 0 min 2,1 C 5,7 C 0,0 km/h (0 Bft)
09.12.2020 12:35 3,9 C 6,0 C 5,1 C 5,7 C 5,7 C 1,8 C 89 % 92 % 1010,9 hPa 0,0 l/m 0,0 km/h (0 Bft) N-NO 22 0 min 2,3 C 5,7 C 0,0 km/h (0 Bft)
09.12.2020 12:40 3,8 C 6,0 C 5,1 C 5,9 C 5,9 C 2,1 C 89 % 92 % 1010,9 hPa 0,0 l/m 0,0 km/h (0 Bft) N-NO 22 0 min 2,2 C 5,9 C 0,0 km/h (0 Bft)
09.12.2020 12:45 3,9 C 6,1 C 5,3 C 6,0 C 6,0 C 2,1 C 89 % 92 % 1010,9 hPa 0,0 l/m 0,0 km/h (0 Bft) N-NO 22 0 min 2,3 C 6,0 C 0,0 km/h (0 Bft)
09.12.2020 12:50 3,9 C 6,1 C 5,3 C 6,2 C 6,2 C 2,3 C 89 % 92 % 1010,9 hPa 0,0 l/m 0,0 km/h (0 Bft) N-NO 22 0 min 2,3 C 6,2 C 0,0 km/h (0 Bft)
09.12.2020 12:55 4,0 C 6,1 C 5,4 C 6,2 C 6,2 C 2,2 C 89 % 92 % 1010,9 hPa 0,0 l/m 0,0 km/h (0 Bft) N-NO 22 0 min 2,4 C 6,2 C 0,0 km/h (0 Bft)
09.12.2020 13:00 4,1 C 6,1 C 5,4 C 6,3 C 6,3 C 2,2 C 89 % 92 % 1010,9 hPa 0,0 l/m 0,0 km/h (0 Bft) N-NO 22 0 min 2,5 C 6,3 C 0,0 km/h (0 Bft)
09.12.2020 13:05 4,2 C 6,1 C 5,5 C 6,4 C 6,4 C 2,2 C 89 % 92 % 1010,9 hPa 0,0 l/m 0,0 km/h (0 Bft) N-NO 22 0 min 2,6 C 6,4 C 0,0 km/h (0 Bft)
09.12.2020 13:10 4,3 C 6,1 C 5,5 C 6,5 C 6,5 C 2,2 C 89 % 92 % 1010,9 hPa 0,0 l/m 0,0 km/h (0 Bft) N-NO 22 0 min 2,7 C 6,5 C 0,0 km/h (0 Bft)
09.12.2020 13:15 4,4 C 6,1 C 5,6 C 6,7 C 6,7 C 2,3 C 89 % 92 % 1010,9 hPa 0,0 l/m 0,0 km/h (0 Bft) N-NO 22 0 min 2,7 C 6,7 C 0,0 km/h (0 Bft)
09.12.2020 13:20 4,4 C 6,1 C 5,7 C 6,6 C 6,6 C 2,2 C 89 % 92 % 1010,9 hPa 0,0 l/m 0,0 km/h (0 Bft) N-NO 22 0 min 2,7 C 6,6 C 0,0 km/h (0 Bft)
09.12.2020 13:25 4,3 C 6,1 C 5,6 C 6,4 C 6,4 C 2,1 C 89 % 92 % 1010,9 hPa 0,0 l/m 0,0 km/h (0 Bft) N-NO 22 0 min 2,7 C 6,4 C 0,0 km/h (0 Bft)
09.12.2020 13:30 4,3 C 6,1 C 5,7 C 6,4 C 6,4 C 2,1 C 89 % 92 % 1011,1 hPa 0,0 l/m 0,0 km/h (0 Bft) N-NO 22 0 min 2,7 C 6,4 C 0,0 km/h (0 Bft)
09.12.2020 13:35 4,3 C 6,1 C 5,5 C 6,3 C 6,3 C 2,0 C 89 % 92 % 1011,1 hPa 0,0 l/m 0,0 km/h (0 Bft) N-NO 22 0 min 2,7 C 6,3 C 0,0 km/h (0 Bft)
09.12.2020 13:40 4,3 C 6,1 C 5,5 C 6,2 C 6,2 C 1,9 C 89 % 92 % 1011,1 hPa 0,0 l/m 0,0 km/h (0 Bft) N-NO 22 0 min 2,7 C 6,2 C 0,0 km/h (0 Bft)
09.12.2020 13:45 4,4 C 6,1 C 5,5 C 6,2 C 6,2 C 1,8 C 89 % 92 % 1011,1 hPa 0,0 l/m 0,0 km/h (0 Bft) N-NO 22 0 min 2,7 C 6,2 C 0,0 km/h (0 Bft)
09.12.2020 13:50 4,3 C 6,1 C 5,5 C 6,2 C 6,2 C 1,9 C 89 % 92 % 1010,9 hPa 0,0 l/m 0,0 km/h (0 Bft) N-NO 22 0 min 2,7 C 6,2 C 0,0 km/h (0 Bft)
09.12.2020 13:55 4,3 C 6,1 C 5,5 C 6,2 C 6,2 C 1,9 C 89 % 92 % 1010,9 hPa 0,0 l/m 0,0 km/h (0 Bft) N-NO 22 0 min 2,7 C 6,2 C 0,0 km/h (0 Bft)
09.12.2020 14:00 4,3 C 6,1 C 5,4 C 6,1 C 6,1 C 1,8 C 89 % 92 % 1010,9 hPa 0,0 l/m 0,0 km/h (0 Bft) N-NO 22 0 min 2,7 C 6,1 C 0,0 km/h (0 Bft)
09.12.2020 14:05 4,3 C 6,1 C 5,3 C 6,0 C 6,0 C 1,7 C 89 % 92 % 1010,9 hPa 0,0 l/m 0,0 km/h (0 Bft) N-NO 22 0 min 2,7 C 6,0 C 0,0 km/h (0 Bft)
09.12.2020 14:10 4,2 C 6,2 C 5,3 C 6,0 C 6,0 C 1,8 C 89 % 92 % 1011,0 hPa 0,0 l/m 0,0 km/h (0 Bft) N-NO 22 0 min 2,6 C 6,0 C 0,0 km/h (0 Bft)
09.12.2020 14:15 4,3 C 6,2 C 5,3 C 5,8 C 5,8 C 1,5 C 89 % 92 % 1011,0 hPa 0,0 l/m 0,0 km/h (0 Bft) N-NO 22 0 min 2,7 C 5,8 C 0,0 km/h (0 Bft)
09.12.2020 14:20 4,3 C 6,2 C 5,3 C 5,8 C 5,8 C 1,5 C 88 % 92 % 1011,0 hPa 0,0 l/m 0,5 km/h (0 Bft) O-NO 67 0 min 2,5 C 5,8 C 4,5 km/h (1 Bft)
09.12.2020 14:25 4,0 C 6,2 C 5,1 C 5,5 C 5,5 C 1,5 C 89 % 92 % 1011,0 hPa 0,0 l/m 1,6 km/h (1 Bft) O-NO 67 0 min 2,4 C 5,5 C 0,0 km/h (0 Bft)
09.12.2020 14:30 4,0 C 6,2 C 5,1 C 5,4 C 5,4 C 1,4 C 89 % 92 % 1011,1 hPa 0,0 l/m 2,3 km/h (1 Bft) O-NO 67 0 min 2,4 C 5,4 C 2,6 km/h (1 Bft)
09.12.2020 14:35 4,0 C 6,2 C 5,0 C 5,4 C 5,4 C 1,4 C 88 % 92 % 1011,1 hPa 0,0 l/m 1,1 km/h (1 Bft) O-NO 67 0 min 2,2 C 5,4 C 0,0 km/h (0 Bft)
09.12.2020 14:40 4,0 C 6,2 C 5,0 C 5,4 C 5,4 C 1,4 C 88 % 92 % 1011,1 hPa 0,0 l/m 0,6 km/h (0 Bft) N-NO 22 0 min 2,2 C 5,4 C 0,0 km/h (0 Bft)
09.12.2020 14:45 3,9 C 6,2 C 4,9 C 5,4 C 5,4 C 1,5 C 88 % 92 % 1011,1 hPa 0,0 l/m 0,3 km/h (0 Bft) O-NO 67 0 min 2,1 C 5,4 C 0,0 km/h (0 Bft)
09.12.2020 14:50 3,9 C 6,2 C 4,9 C 5,3 C 5,3 C 1,4 C 88 % 93 % 1011,1 hPa 0,0 l/m 0,3 km/h (0 Bft) N-NO 22 0 min 2,1 C 5,3 C 0,0 km/h (0 Bft)
09.12.2020 14:55 3,9 C 6,2 C 4,7 C 5,2 C 5,2 C 1,3 C 88 % 93 % 1011,1 hPa 0,0 l/m 0,2 km/h (0 Bft) N-NO 22 0 min 2,1 C 5,2 C 0,0 km/h (0 Bft)
09.12.2020 15:00 3,9 C 6,2 C 4,7 C 5,1 C 5,1 C 1,2 C 88 % 93 % 1011,1 hPa 0,0 l/m 0,2 km/h (0 Bft) NO 45 0 min 2,1 C 5,1 C 2,6 km/h (1 Bft)
09.12.2020 15:05 3,8 C 6,2 C 4,6 C 5,0 C 5,0 C 1,2 C 88 % 93 % 1011,1 hPa 0,0 l/m 0,2 km/h (0 Bft) O-NO 67 0 min 2,0 C 5,0 C 0,0 km/h (0 Bft)
09.12.2020 15:10 3,7 C 6,2 C 4,6 C 5,0 C 5,0 C 1,3 C 88 % 93 % 1011,2 hPa 0,0 l/m 0,2 km/h (0 Bft) O-NO 67 0 min 1,9 C 5,0 C 0,0 km/h (0 Bft)
09.12.2020 15:15 3,6 C 6,2 C 4,5 C 4,8 C 4,8 C 1,2 C 88 % 92 % 1011,2 hPa 0,0 l/m 0,6 km/h (0 Bft) NO 45 0 min 1,8 C 4,8 C 2,4 km/h (1 Bft)
09.12.2020 15:20 3,6 C 6,2 C 4,4 C 4,7 C 4,7 C 1,1 C 88 % 92 % 1011,2 hPa 0,0 l/m 1,0 km/h (0 Bft) O-NO 67 0 min 1,8 C 4,7 C 0,0 km/h (0 Bft)
09.12.2020 15:25 3,6 C 6,2 C 4,4 C 4,7 C 4,7 C 1,1 C 88 % 92 % 1011,2 hPa 0,0 l/m 0,6 km/h (0 Bft) NO 45 0 min 1,8 C 4,7 C 3,4 km/h (1 Bft)
09.12.2020 15:30 3,7 C 6,2 C 4,3 C 4,7 C 4,7 C 1,0 C 88 % 92 % 1011,1 hPa 0,0 l/m 0,6 km/h (0 Bft) O-NO 67 5 min 1,9 C 4,7 C 2,9 km/h (1 Bft)
09.12.2020 15:35 3,6 C 6,2 C 4,3 C 4,7 C 4,7 C 1,1 C 88 % 92 % 1011,1 hPa 0,7 l/m 1,8 km/h (1 Bft) O-NO 67 5 min 1,8 C 4,7 C 3,9 km/h (1 Bft)
09.12.2020 15:40 3,6 C 6,2 C 4,3 C 4,6 C 4,6 C 1,0 C 88 % 92 % 1011,1 hPa 0,0 l/m 2,1 km/h (1 Bft) O-NO 67 5 min 1,8 C 4,6 C 2,1 km/h (1 Bft)
09.12.2020 15:45 3,6 C 6,2 C 4,2 C 4,6 C 4,6 C 1,0 C 88 % 92 % 1011,1 hPa 0,0 l/m 2,6 km/h (1 Bft) NO 45 5 min 1,8 C 4,6 C 3,9 km/h (1 Bft)
09.12.2020 15:50 3,6 C 6,2 C 4,2 C 4,6 C 4,6 C 1,0 C 88 % 92 % 1011,1 hPa 0,0 l/m 2,1 km/h (1 Bft) O-NO 67 0 min 1,8 C 4,6 C 0,0 km/h (0 Bft)
09.12.2020 15:55 3,5 C 6,2 C 4,1 C 4,5 C 4,5 C 1,0 C 88 % 92 % 1011,1 hPa 0,0 l/m 1,9 km/h (1 Bft) O-NO 67 0 min 1,7 C 4,5 C 3,7 km/h (1 Bft)
09.12.2020 16:00 3,5 C 6,2 C 4,1 C 4,5 C 4,5 C 1,0 C 88 % 92 % 1011,1 hPa 0,0 l/m 1,9 km/h (1 Bft) O-NO 67 0 min 1,7 C 4,5 C 2,7 km/h (1 Bft)
09.12.2020 16:05 3,5 C 6,2 C 4,1 C 4,4 C 4,4 C 0,9 C 88 % 92 % 1011,1 hPa 0,0 l/m 2,4 km/h (1 Bft) NO 45 0 min 1,7 C 4,4 C 3,1 km/h (1 Bft)
09.12.2020 16:10 3,4 C 6,2 C 4,0 C 4,3 C 4,3 C 0,9 C 88 % 92 % 1011,2 hPa 0,0 l/m 2,3 km/h (1 Bft) NO 45 0 min 1,6 C 4,3 C 2,4 km/h (1 Bft)
09.12.2020 16:15 3,5 C 6,2 C 4,0 C 4,3 C 4,3 C 0,8 C 88 % 92 % 1011,2 hPa 0,0 l/m 2,1 km/h (1 Bft) NO 45 0 min 1,7 C 4,3 C 1,8 km/h (1 Bft)
09.12.2020 16:20 3,5 C 6,2 C 4,0 C 4,2 C 4,2 C 0,7 C 88 % 92 % 1011,2 hPa 0,0 l/m 1,4 km/h (1 Bft) O-NO 67 0 min 1,7 C 4,2 C 0,0 km/h (0 Bft)
09.12.2020 16:25 3,4 C 6,2 C 3,9 C 4,2 C 4,2 C 0,8 C 88 % 92 % 1011,2 hPa 0,0 l/m 0,3 km/h (0 Bft) NO 45 0 min 1,6 C 4,2 C 0,0 km/h (0 Bft)
09.12.2020 16:30 3,4 C 6,2 C 3,9 C 4,2 C 4,2 C 0,8 C 88 % 92 % 1011,4 hPa 0,0 l/m 0,2 km/h (0 Bft) O-NO 67 0 min 1,6 C 4,2 C 0,0 km/h (0 Bft)
09.12.2020 16:35 3,3 C 6,2 C 3,9 C 4,1 C 4,1 C 0,8 C 88 % 92 % 1011,4 hPa 0,0 l/m 0,2 km/h (0 Bft) NO 45 0 min 1,5 C 4,1 C 1,9 km/h (1 Bft)
09.12.2020 16:40 3,3 C 6,2 C 3,9 C 4,1 C 4,1 C 0,8 C 88 % 92 % 1011,4 hPa 0,0 l/m 0,6 km/h (0 Bft) O-NO 67 0 min 1,5 C 4,1 C 2,9 km/h (1 Bft)
09.12.2020 16:45 3,2 C 6,2 C 3,8 C 4,1 C 4,1 C 0,9 C 88 % 92 % 1011,4 hPa 0,0 l/m 0,8 km/h (0 Bft) O 90 0 min 1,4 C 4,1 C 0,0 km/h (0 Bft)
09.12.2020 16:50 3,2 C 6,2 C 3,8 C 4,1 C 4,1 C 0,9 C 88 % 92 % 1011,4 hPa 0,7 l/m 0,3 km/h (0 Bft) O-NO 67 0 min 1,4 C 4,1 C 0,0 km/h (0 Bft)
09.12.2020 16:55 3,2 C 6,2 C 3,8 C 4,1 C 4,1 C 0,9 C 88 % 92 % 1011,4 hPa 0,0 l/m 0,5 km/h (0 Bft) NO 45 0 min 1,4 C 4,1 C 1,6 km/h (1 Bft)
09.12.2020 17:00 3,2 C 6,2 C 3,7 C 4,1 C 4,1 C 0,9 C 88 % 92 % 1011,4 hPa 0,0 l/m 0,5 km/h (0 Bft) O-NO 67 0 min 1,4 C 4,1 C 0,0 km/h (0 Bft)
09.12.2020 17:05 3,2 C 6,2 C 3,7 C 4,1 C 4,1 C 0,9 C 88 % 92 % 1011,4 hPa 0,0 l/m 0,2 km/h (0 Bft) O-NO 67 0 min 1,4 C 4,1 C 0,0 km/h (0 Bft)
09.12.2020 17:10 3,2 C 6,2 C 3,7 C 4,1 C 4,1 C 0,9 C 88 % 92 % 1011,1 hPa 0,0 l/m 0,0 km/h (0 Bft) O-NO 67 0 min 1,4 C 4,1 C 0,0 km/h (0 Bft)
09.12.2020 17:15 3,2 C 6,2 C 3,6 C 4,0 C 4,0 C 0,8 C 88 % 92 % 1011,1 hPa 0,0 l/m 0,0 km/h (0 Bft) O-NO 67 0 min 1,4 C 4,0 C 0,0 km/h (0 Bft)
09.12.2020 17:20 3,1 C 6,2 C 3,6 C 4,0 C 4,0 C 0,9 C 88 % 92 % 1011,1 hPa 0,0 l/m 0,2 km/h (0 Bft) NO 45 0 min 1,3 C 4,0 C 1,9 km/h (1 Bft)
09.12.2020 17:25 3,1 C 6,2 C 3,6 C 4,0 C 4,0 C 0,9 C 88 % 92 % 1011,1 hPa 0,7 l/m 1,3 km/h (1 Bft) NO 45 0 min 1,3 C 4,0 C 3,2 km/h (1 Bft)
09.12.2020 17:30 3,1 C 6,2 C 3,6 C 4,0 C 4,0 C 0,9 C 88 % 92 % 1011,2 hPa 0,0 l/m 2,3 km/h (1 Bft) O-NO 67 0 min 1,3 C 4,0 C 2,6 km/h (1 Bft)
09.12.2020 17:35 3,1 C 6,2 C 3,6 C 4,0 C 4,0 C 0,9 C 88 % 92 % 1011,2 hPa 0,0 l/m 2,6 km/h (1 Bft) O 90 0 min 1,3 C 4,0 C 3,5 km/h (1 Bft)
09.12.2020 17:40 3,1 C 6,2 C 3,6 C 4,0 C 4,0 C 0,9 C 88 % 92 % 1011,2 hPa 0,0 l/m 2,7 km/h (1 Bft) NO 45 0 min 1,3 C 4,0 C 2,9 km/h (1 Bft)
09.12.2020 17:45 3,0 C 6,2 C 3,6 C 4,0 C 4,0 C 1,0 C 88 % 92 % 1011,2 hPa 0,0 l/m 2,6 km/h (1 Bft) NO 45 0 min 1,2 C 4,0 C 2,6 km/h (1 Bft)
09.12.2020 17:50 3,1 C 6,2 C 3,6 C 4,0 C 4,0 C 0,9 C 88 % 92 % 1011,1 hPa 0,0 l/m 2,1 km/h (1 Bft) NO 45 0 min 1,3 C 4,0 C 2,1 km/h (1 Bft)
09.12.2020 17:55 3,1 C 6,2 C 3,6 C 4,0 C 4,0 C 0,9 C 88 % 92 % 1011,1 hPa 0,0 l/m 0,6 km/h (0 Bft) NO 45 0 min 1,3 C 4,0 C 0,0 km/h (0 Bft)
09.12.2020 18:00 3,1 C 6,2 C 3,6 C 4,0 C 4,0 C 0,9 C 88 % 92 % 1011,1 hPa 0,0 l/m 0,2 km/h (0 Bft) NO 45 0 min 1,3 C 4,0 C 0,0 km/h (0 Bft)
09.12.2020 18:05 3,0 C 6,2 C 3,6 C 3,9 C 3,9 C 0,9 C 88 % 92 % 1011,1 hPa 0,0 l/m 0,0 km/h (0 Bft) NO 45 0 min 1,2 C 3,9 C 0,0 km/h (0 Bft)
09.12.2020 18:10 2,9 C 6,2 C 3,5 C 3,9 C 3,9 C 1,0 C 88 % 92 % 1011,6 hPa 0,0 l/m 0,0 km/h (0 Bft) NO 45 0 min 1,1 C 3,9 C 0,0 km/h (0 Bft)
09.12.2020 18:15 2,9 C 6,2 C 3,5 C 3,9 C 3,9 C 1,0 C 88 % 92 % 1011,6 hPa 0,0 l/m 0,0 km/h (0 Bft) O-NO 67 0 min 1,1 C 3,9 C 0,0 km/h (0 Bft)
09.12.2020 18:20 2,9 C 6,2 C 3,5 C 3,9 C 3,9 C 1,0 C 88 % 92 % 1011,6 hPa 0,0 l/m 0,0 km/h (0 Bft) NO 45 0 min 1,1 C 3,9 C 0,0 km/h (0 Bft)
09.12.2020 18:25 2,9 C 6,2 C 3,5 C 3,9 C 3,9 C 1,0 C 88 % 92 % 1011,6 hPa 0,0 l/m 0,0 km/h (0 Bft) NO 45 0 min 1,1 C 3,9 C 0,0 km/h (0 Bft)
09.12.2020 18:30 2,9 C 6,2 C 3,5 C 3,9 C 3,9 C 1,0 C 88 % 92 % 1011,2 hPa 0,0 l/m 0,0 km/h (0 Bft) O-NO 67 0 min 1,1 C 3,9 C 0,0 km/h (0 Bft)
09.12.2020 18:35 2,9 C 6,2 C 3,5 C 3,9 C 3,9 C 1,0 C 88 % 92 % 1011,2 hPa 0,0 l/m 0,0 km/h (0 Bft) O-NO 67 0 min 1,1 C 3,9 C 0,0 km/h (0 Bft)
09.12.2020 18:40 2,8 C 6,2 C 3,5 C 3,9 C 3,9 C 1,1 C 88 % 92 % 1011,2 hPa 0,0 l/m 0,0 km/h (0 Bft) NO 45 0 min 1,0 C 3,9 C 0,0 km/h (0 Bft)
09.12.2020 18:45 2,8 C 6,2 C 3,5 C 3,9 C 3,9 C 1,1 C 88 % 92 % 1011,2 hPa 0,0 l/m 0,0 km/h (0 Bft) NO 45 0 min 1,0 C 3,9 C 0,0 km/h (0 Bft)
09.12.2020 18:50 2,8 C 6,2 C 3,5 C 3,9 C 3,9 C 1,1 C 88 % 92 % 1011,4 hPa 0,0 l/m 0,0 km/h (0 Bft) O-NO 67 0 min 1,0 C 3,9 C 0,0 km/h (0 Bft)
09.12.2020 18:55 2,8 C 6,3 C 3,5 C 3,9 C 3,9 C 1,1 C 88 % 92 % 1011,4 hPa 0,0 l/m 0,0 km/h (0 Bft) O-NO 67 0 min 1,0 C 3,9 C 0,0 km/h (0 Bft)
09.12.2020 19:00 2,9 C 6,3 C 3,5 C 3,9 C 3,9 C 1,0 C 88 % 92 % 1011,4 hPa 0,0 l/m 0,0 km/h (0 Bft) NO 45 0 min 1,1 C 3,9 C 0,0 km/h (0 Bft)
09.12.2020 19:05 2,8 C 6,3 C 3,5 C 3,9 C 3,9 C 1,1 C 88 % 92 % 1011,4 hPa 0,0 l/m 0,0 km/h (0 Bft) O-NO 67 0 min 1,0 C 3,9 C 0,0 km/h (0 Bft)
09.12.2020 19:10 2,9 C 6,3 C 3,5 C 3,9 C 3,9 C 1,0 C 88 % 92 % 1011,6 hPa 0,0 l/m 0,0 km/h (0 Bft) O-NO 67 0 min 1,1 C 3,9 C 0,0 km/h (0 Bft)
09.12.2020 19:15 2,8 C 6,3 C 3,5 C 3,9 C 3,9 C 1,1 C 88 % 92 % 1011,6 hPa 0,0 l/m 0,0 km/h (0 Bft) O-NO 67 0 min 1,0 C 3,9 C 0,0 km/h (0 Bft)
09.12.2020 19:20 2,8 C 6,3 C 3,5 C 3,9 C 3,9 C 1,1 C 88 % 92 % 1011,6 hPa 0,0 l/m 0,0 km/h (0 Bft) O-NO 67 0 min 1,0 C 3,9 C 0,0 km/h (0 Bft)
09.12.2020 19:25 2,8 C 6,3 C 3,5 C 3,9 C 3,9 C 1,1 C 88 % 92 % 1011,6 hPa 0,0 l/m 0,0 km/h (0 Bft) O-NO 67 0 min 1,0 C 3,9 C 0,0 km/h (0 Bft)
09.12.2020 19:30 2,8 C 6,3 C 3,5 C 3,8 C 3,8 C 1,0 C 89 % 92 % 1011,6 hPa 0,0 l/m 0,0 km/h (0 Bft) O-NO 67 0 min 1,2 C 3,8 C 0,0 km/h (0 Bft)
09.12.2020 19:35 2,7 C 6,4 C 3,5 C 3,8 C 3,8 C 1,1 C 89 % 92 % 1011,6 hPa 0,0 l/m 0,0 km/h (0 Bft) NO 45 0 min 1,1 C 3,8 C 0,0 km/h (0 Bft)
09.12.2020 19:40 2,7 C 6,4 C 3,4 C 3,8 C 3,8 C 1,1 C 88 % 92 % 1011,6 hPa 0,0 l/m 0,0 km/h (0 Bft) N-NO 22 0 min 0,9 C 3,8 C 0,0 km/h (0 Bft)
09.12.2020 19:45 2,7 C 6,4 C 3,4 C 3,8 C 3,8 C 1,1 C 89 % 92 % 1011,6 hPa 0,0 l/m 0,0 km/h (0 Bft) N-NO 22 0 min 1,1 C 3,8 C 0,0 km/h (0 Bft)
09.12.2020 19:50 2,7 C 6,4 C 3,4 C 3,8 C 3,8 C 1,1 C 88 % 92 % 1011,3 hPa 0,0 l/m 0,0 km/h (0 Bft) N-NO 22 0 min 0,9 C 3,8 C 0,0 km/h (0 Bft)
09.12.2020 19:55 2,6 C 6,4 C 3,5 C 3,8 C 3,8 C 1,2 C 89 % 92 % 1011,3 hPa 0,0 l/m 0,0 km/h (0 Bft) N-NO 22 0 min 1,0 C 3,8 C 0,0 km/h (0 Bft)
09.12.2020 20:00 2,6 C 6,4 C 3,5 C 3,8 C 3,8 C 1,2 C 89 % 92 % 1011,3 hPa 0,0 l/m 0,0 km/h (0 Bft) O-NO 67 0 min 1,0 C 3,8 C 0,0 km/h (0 Bft)
09.12.2020 20:05 2,7 C 6,4 C 3,5 C 3,8 C 3,8 C 1,1 C 89 % 92 % 1011,3 hPa 0,0 l/m 0,0 km/h (0 Bft) O-NO 67 0 min 1,1 C 3,8 C 0,0 km/h (0 Bft)
09.12.2020 20:10 2,7 C 6,4 C 3,5 C 3,8 C 3,8 C 1,1 C 89 % 92 % 1011,6 hPa 0,0 l/m 0,0 km/h (0 Bft) O-NO 67 0 min 1,1 C 3,8 C 0,0 km/h (0 Bft)
09.12.2020 20:15 2,6 C 6,4 C 3,5 C 3,9 C 3,9 C 1,3 C 89 % 92 % 1011,6 hPa 0,0 l/m 0,0 km/h (0 Bft) O-NO 67 0 min 1,0 C 3,9 C 0,0 km/h (0 Bft)
09.12.2020 20:20 2,6 C 6,4 C 3,5 C 3,9 C 3,9 C 1,3 C 89 % 92 % 1011,6 hPa 0,0 l/m 0,0 km/h (0 Bft) O-NO 67 0 min 1,0 C 3,9 C 0,0 km/h (0 Bft)
09.12.2020 20:25 2,7 C 6,4 C 3,5 C 3,8 C 3,8 C 1,1 C 89 % 92 % 1011,6 hPa 0,0 l/m 0,0 km/h (0 Bft) O-NO 67 0 min 1,1 C 3,8 C 0,0 km/h (0 Bft)
09.12.2020 20:30 2,7 C 6,4 C 3,5 C 3,8 C 3,8 C 1,1 C 89 % 92 % 1011,4 hPa 0,0 l/m 0,0 km/h (0 Bft) NO 45 0 min 1,1 C 3,8 C 0,0 km/h (0 Bft)
09.12.2020 20:35 2,7 C 6,4 C 3,5 C 3,8 C 3,8 C 1,1 C 89 % 92 % 1011,4 hPa 0,0 l/m 0,0 km/h (0 Bft) NO 45 0 min 1,1 C 3,8 C 0,0 km/h (0 Bft)
09.12.2020 20:40 2,7 C 6,4 C 3,5 C 3,8 C 3,8 C 1,1 C 89 % 92 % 1011,4 hPa 0,0 l/m 0,0 km/h (0 Bft) NO 45 0 min 1,1 C 3,8 C 0,0 km/h (0 Bft)
09.12.2020 20:45 2,7 C 6,4 C 3,4 C 3,8 C 3,8 C 1,1 C 89 % 92 % 1011,4 hPa 0,0 l/m 0,0 km/h (0 Bft) O-NO 67 0 min 1,1 C 3,8 C 0,0 km/h (0 Bft)
09.12.2020 20:50 2,7 C 6,4 C 3,5 C 3,8 C 3,8 C 1,1 C 89 % 92 % 1011,6 hPa 0,0 l/m 0,0 km/h (0 Bft) O-NO 67 0 min 1,1 C 3,8 C 0,0 km/h (0 Bft)
09.12.2020 20:55 2,7 C 6,4 C 3,5 C 3,8 C 3,8 C 1,1 C 89 % 92 % 1011,6 hPa 0,0 l/m 0,0 km/h (0 Bft) NO 45 0 min 1,1 C 3,8 C 0,0 km/h (0 Bft)
09.12.2020 21:00 2,7 C 6,3 C 3,5 C 3,9 C 3,9 C 1,2 C 89 % 92 % 1011,6 hPa 0,0 l/m 0,0 km/h (0 Bft) NO 45 0 min 1,1 C 3,9 C 0,0 km/h (0 Bft)
09.12.2020 21:05 2,7 C 6,4 C 3,5 C 3,9 C 3,9 C 1,2 C 89 % 92 % 1011,6 hPa 0,0 l/m 0,5 km/h (0 Bft) NO 45 0 min 1,1 C 3,9 C 0,0 km/h (0 Bft)
09.12.2020 21:10 2,7 C 6,4 C 3,5 C 3,9 C 3,9 C 1,2 C 89 % 92 % 1011,7 hPa 0,0 l/m 1,0 km/h (0 Bft) O-NO 67 0 min 1,1 C 3,9 C 3,2 km/h (1 Bft)
09.12.2020 21:15 2,6 C 6,4 C 3,5 C 3,9 C 3,9 C 1,3 C 89 % 92 % 1011,7 hPa 0,0 l/m 2,3 km/h (1 Bft) NO 45 0 min 1,0 C 3,9 C 2,4 km/h (1 Bft)
09.12.2020 21:20 2,7 C 6,4 C 3,5 C 3,9 C 3,9 C 1,2 C 89 % 92 % 1011,7 hPa 0,0 l/m 1,9 km/h (1 Bft) NO 45 0 min 1,1 C 3,9 C 0,0 km/h (0 Bft)
09.12.2020 21:25 2,7 C 6,4 C 3,5 C 3,8 C 3,8 C 1,1 C 89 % 92 % 1011,7 hPa 0,0 l/m 0,5 km/h (0 Bft) O-NO 67 0 min 1,1 C 3,8 C 0,0 km/h (0 Bft)
09.12.2020 21:30 2,7 C 6,4 C 3,5 C 3,8 C 3,8 C 1,1 C 89 % 92 % 1011,4 hPa 0,0 l/m 0,6 km/h (0 Bft) NO 45 0 min 1,1 C 3,8 C 2,1 km/h (1 Bft)
09.12.2020 21:35 2,6 C 6,4 C 3,5 C 3,8 C 3,8 C 1,2 C 89 % 92 % 1011,4 hPa 0,0 l/m 1,0 km/h (0 Bft) NO 45 0 min 1,0 C 3,8 C 0,0 km/h (0 Bft)
09.12.2020 21:40 2,6 C 6,4 C 3,5 C 3,8 C 3,8 C 1,2 C 89 % 92 % 1011,4 hPa 0,0 l/m 0,6 km/h (0 Bft) N-NO 22 0 min 1,0 C 3,8 C 0,0 km/h (0 Bft)
09.12.2020 21:45 2,5 C 6,4 C 3,4 C 3,7 C 3,7 C 1,2 C 89 % 92 % 1011,4 hPa 0,0 l/m 0,0 km/h (0 Bft) N-NO 22 0 min 0,9 C 3,7 C 0,0 km/h (0 Bft)
09.12.2020 21:50 2,5 C 6,4 C 3,4 C 3,7 C 3,7 C 1,2 C 89 % 92 % 1011,6 hPa 0,0 l/m 0,0 km/h (0 Bft) N-NO 22 0 min 0,9 C 3,7 C 0,0 km/h (0 Bft)
09.12.2020 21:55 2,5 C 6,4 C 3,4 C 3,7 C 3,7 C 1,2 C 89 % 92 % 1011,6 hPa 0,0 l/m 0,3 km/h (0 Bft) NO 45 0 min 0,9 C 3,7 C 2,4 km/h (1 Bft)
09.12.2020 22:00 2,5 C 6,4 C 3,3 C 3,6 C 3,6 C 1,1 C 89 % 92 % 1011,6 hPa 0,0 l/m 0,8 km/h (0 Bft) N-NO 22 0 min 0,9 C 3,6 C 0,0 km/h (0 Bft)
09.12.2020 22:05 2,5 C 6,4 C 3,3 C 3,6 C 3,6 C 1,1 C 89 % 92 % 1011,6 hPa 0,0 l/m 1,6 km/h (1 Bft) NO 45 0 min 0,9 C 3,6 C 1,8 km/h (1 Bft)
09.12.2020 22:10 2,4 C 6,4 C 3,2 C 3,5 C 3,5 C 1,1 C 89 % 92 % 1011,8 hPa 0,0 l/m 1,8 km/h (1 Bft) O-NO 67 0 min 0,8 C 3,5 C 2,3 km/h (1 Bft)
09.12.2020 22:15 2,3 C 6,4 C 3,1 C 3,4 C 3,4 C 1,1 C 89 % 92 % 1011,8 hPa 0,0 l/m 2,3 km/h (1 Bft) NO 45 0 min 0,7 C 3,4 C 2,6 km/h (1 Bft)
09.12.2020 22:20 2,3 C 6,4 C 3,1 C 3,4 C 3,4 C 1,1 C 89 % 92 % 1011,8 hPa 0,0 l/m 1,9 km/h (1 Bft) O-NO 67 0 min 0,7 C 3,4 C 1,8 km/h (1 Bft)
09.12.2020 22:25 2,3 C 6,4 C 3,1 C 3,3 C 3,3 C 1,0 C 89 % 92 % 1011,8 hPa 0,0 l/m 0,8 km/h (0 Bft) O-NO 67 0 min 0,7 C 3,3 C 1,8 km/h (1 Bft)
09.12.2020 22:30 2,3 C 6,4 C 3,1 C 3,3 C 3,3 C 1,0 C 89 % 92 % 1011,8 hPa 0,0 l/m 1,1 km/h (1 Bft) O-NO 67 0 min 0,7 C 3,3 C 4,0 km/h (1 Bft)
09.12.2020 22:35 2,3 C 6,4 C 3,1 C 3,2 C 3,2 C 0,9 C 89 % 92 % 1011,8 hPa 0,0 l/m 1,8 km/h (1 Bft) NO 45 0 min 0,7 C 3,2 C 1,9 km/h (1 Bft)
09.12.2020 22:40 2,2 C 6,4 C 3,1 C 3,2 C 3,2 C 1,0 C 89 % 92 % 1011,8 hPa 0,0 l/m 2,1 km/h (1 Bft) O-NO 67 0 min 0,6 C 3,2 C 2,3 km/h (1 Bft)
09.12.2020 22:45 2,1 C 6,4 C 3,0 C 3,1 C 3,1 C 1,0 C 88 % 92 % 1011,8 hPa 0,0 l/m 1,9 km/h (1 Bft) N-NO 22 0 min 0,3 C 3,1 C 0,0 km/h (0 Bft)
09.12.2020 22:50 2,1 C 6,4 C 2,9 C 3,1 C 3,1 C 1,0 C 88 % 92 % 1011,8 hPa 0,0 l/m 1,3 km/h (1 Bft) O-NO 67 0 min 0,3 C 3,1 C 0,0 km/h (0 Bft)
09.12.2020 22:55 2,0 C 6,4 C 2,9 C 3,0 C 3,0 C 1,0 C 88 % 92 % 1011,8 hPa 0,0 l/m 0,2 km/h (0 Bft) O-NO 67 0 min 0,2 C 3,0 C 0,0 km/h (0 Bft)
09.12.2020 23:00 2,0 C 6,4 C 2,9 C 3,0 C 3,0 C 1,0 C 88 % 92 % 1011,8 hPa 0,0 l/m 0,5 km/h (0 Bft) NO 45 0 min 0,2 C 3,0 C 1,9 km/h (1 Bft)
09.12.2020 23:05 2,1 C 6,4 C 2,9 C 3,0 C 3,0 C 0,9 C 88 % 92 % 1011,8 hPa 0,0 l/m 1,3 km/h (1 Bft) NO 45 0 min 0,3 C 3,0 C 2,6 km/h (1 Bft)
09.12.2020 23:10 2,0 C 6,4 C 2,8 C 3,0 C 3,0 C 1,0 C 88 % 92 % 1011,5 hPa 0,0 l/m 1,6 km/h (1 Bft) NO 45 0 min 0,2 C 3,0 C 1,8 km/h (1 Bft)
09.12.2020 23:15 1,9 C 6,4 C 2,8 C 3,0 C 3,0 C 1,1 C 88 % 92 % 1011,5 hPa 0,0 l/m 1,4 km/h (1 Bft) O-NO 67 0 min 0,1 C 3,0 C 2,9 km/h (1 Bft)
09.12.2020 23:20 1,9 C 6,4 C 2,8 C 2,9 C 2,9 C 1,0 C 88 % 92 % 1011,5 hPa 0,0 l/m 1,4 km/h (1 Bft) O-NO 67 0 min 0,1 C 2,9 C 2,3 km/h (1 Bft)
09.12.2020 23:25 1,8 C 6,4 C 2,7 C 2,9 C 2,9 C 1,1 C 88 % 92 % 1011,5 hPa 0,0 l/m 1,3 km/h (1 Bft) O-NO 67 0 min 0,0 C 2,9 C 1,9 km/h (1 Bft)
09.12.2020 23:30 1,9 C 6,4 C 2,7 C 2,9 C 2,9 C 1,0 C 88 % 92 % 1011,2 hPa 0,0 l/m 1,6 km/h (1 Bft) O-NO 67 0 min 0,1 C 2,9 C 2,3 km/h (1 Bft)
09.12.2020 23:35 1,9 C 6,4 C 2,7 C 2,9 C 2,9 C 1,0 C 88 % 92 % 1011,2 hPa 0,0 l/m 1,9 km/h (1 Bft) O-NO 67 0 min 0,1 C 2,9 C 2,9 km/h (1 Bft)
09.12.2020 23:40 1,9 C 6,4 C 2,7 C 2,8 C 2,8 C 0,9 C 88 % 92 % 1011,2 hPa 0,0 l/m 1,9 km/h (1 Bft) O-NO 67 0 min 0,1 C 2,8 C 2,4 km/h (1 Bft)
09.12.2020 23:45 1,7 C 6,4 C 2,7 C 2,8 C 2,8 C 1,1 C 88 % 92 % 1011,2 hPa 0,0 l/m 2,1 km/h (1 Bft) NO 45 0 min -0,1 C 2,8 C 4,2 km/h (1 Bft)
09.12.2020 23:50 1,7 C 6,4 C 2,7 C 2,8 C 2,8 C 1,1 C 88 % 92 % 1011,6 hPa 0,0 l/m 1,4 km/h (1 Bft) NO 45 0 min -0,1 C 2,8 C 1,6 km/h (1 Bft)
09.12.2020 23:55 1,7 C 6,4 C 2,7 C 2,8 C 2,8 C 1,1 C 88 % 92 % 1011,6 hPa 0,0 l/m 0,6 km/h (0 Bft) NO 45 0 min -0,1 C 2,8 C 2,1 km/h (1 Bft)
_ Min-Zeit 23:45 00:00 00:00 00:00 00:00 00:00 00:00 00:00 00:30 - 00:30 - - - 23:45 00:00 00:05
Minimum _ 1,7 C 5,5 C 2,3 C 2,7 C 2,6 C 0,0 C 87 % 92 % 1008,6 hPa - 0,0 km/h (0 Bft) - - - -0,1 C 2,6 C 0,0 km/h (0 Bft)
_ Max-Zeit 13:15 19:35 13:20 13:15 13:15 11:50 04:25 14:50 22:10 01:00 06:20 - - 08:15 13:15 13:15 01:45
Maximum _ 4,4 C 6,4 C 5,7 C 6,7 C 6,7 C 2,3 C 89 % 93 % 1011,8 hPa 0,7 l/m 3,2 km/h
NO (1 Bft)
- - 5 min 2,7 C 6,7 C 5,3 km/h
NO (1 Bft)
Durchschnitt _ 2,8 C 6,0 C 3,6 C 4,1 C 4,1 C 1,2 C 89 % 92 % 1010,5 hPa #3,4 l/m 0,5 km/h (0 Bft) NO - #1:20 h 1,1 C 4,1 C 0,6 km/h (0 Bft)
2020 www.wetterstation-wechselburg.de